CDT,Max TemperatureF,Mean TemperatureF,Min TemperatureF,Max Dew PointF,MeanDew PointF,Min DewpointF,Max Humidity, Mean Humidity, Min Humidity, Max Sea Level PressureIn, Mean Sea Level PressureIn, Min Sea Level PressureIn, Max VisibilityMiles, Mean VisibilityMiles, Min VisibilityMiles, Max Wind SpeedMPH, Mean Wind SpeedMPH, Max Gust SpeedMPH,PrecipitationIn, CloudCover, Events, WindDirDegrees
2012-9-1,87,80,73,79,74,72,100,87,66,29.96,29.90,29.82,10,10,8,30,17,37,0.24,3,Thunderstorm,199
2012-9-2,89,81,73,73,72,70,100,77,55,29.91,29.87,29.82,10,10,3,15,9,23,0.00,2,,273
2012-9-3,93,82,71,77,72,70,94,77,49,29.91,29.87,29.82,10,10,5,13,6,17,0.00,0,,285
2012-9-4,91,80,69,77,73,68,100,80,55,29.95,29.89,29.83,10,9,5,12,4,,0.00,0,,34
2012-9-5,96,84,73,79,74,68,100,82,47,29.87,29.83,29.75,10,10,4,20,5,40,0.72,0,Thunderstorm,163
2012-9-6,91,80,69,79,71,64,100,82,55,30.00,29.92,29.86,10,10,5,20,4,32,0.00,0,,41
2012-9-7,91,80,68,79,71,64,100,83,63,30.00,29.85,29.71,10,10,5,25,9,38,1.07,1,Thunderstorm,191
2012-9-8,77,70,62,72,58,52,100,69,41,30.04,29.98,29.87,10,10,3,18,11,24,0.11,2,,336
2012-9-9,84,70,55,63,56,52,88,67,37,30.12,30.05,30.01,10,10,5,12,6,,0.00,0,,312
2012-9-10,78,66,55,61,57,54,94,73,44,30.22,30.15,30.10,10,10,8,9,5,,0.00,0,,35
2012-9-11,82,68,55,64,59,54,100,72,37,30.20,30.14,30.09,10,10,10,9,4,,0.00,0,,143
2012-9-12,82,72,62,64,61,57,94,75,42,30.21,30.14,30.12,10,10,10,13,5,17,0.00,2,,145
2012-9-13,84,73,62,70,66,61,100,81,51,30.22,30.17,30.12,10,10,8,13,5,17,0.00,2,,118
2012-9-14,75,68,62,66,63,61,100,87,69,30.27,30.23,30.18,10,9,3,14,8,,0.01,0,,24
2012-9-15,66,64,62,64,63,61,100,95,88,30.25,30.19,30.12,10,9,3,10,7,,0.10,5,,25
2012-9-16,77,70,64,70,66,63,100,88,69,30.12,30.05,29.98,10,6,2,8,3,,0.00,3,,332
2012-9-17,75,72,68,70,67,64,100,88,69,30.00,29.88,29.80,10,7,0,8,2,,0.00,3,,218
2012-9-18,73,63,53,66,50,43,100,62,33,30.10,29.96,29.79,10,10,10,22,10,28,0.00,1,,337
2012-9-19,73,60,46,52,47,43,93,64,35,30.21,30.12,30.06,10,10,9,10,5,,0.00,0,,189
2012-9-20,82,68,53,61,56,50,94,71,42,30.06,30.02,29.95,10,10,10,15,8,21,0.00,0,,190
2012-9-21,80,70,59,64,62,57,100,80,54,30.08,29.93,29.83,10,10,3,28,8,33,0.34,1,Thunderstorm,189
2012-9-22,82,70,59,63,52,45,94,57,28,30.20,30.06,29.92,10,10,10,13,6,16,0.00,0,,307
2012-9-23,69,58,46,48,43,39,87,61,33,30.32,30.26,30.20,10,10,10,10,7,,0.00,0,,27
2012-9-24,73,60,46,54,48,43,93,67,38,30.27,30.17,30.02,10,10,4,12,6,18,0.00,1,,150
2012-9-25,87,73,59,70,63,55,94,71,40,30.01,29.96,29.91,10,10,8,23,12,30,0.00,0,,192
2012-9-26,84,74,64,70,67,64,100,83,55,30.10,30.03,29.97,10,8,3,20,10,28,0.79,1,Thunderstorm,195
2012-9-27,82,73,64,72,67,63,100,86,65,30.14,30.10,30.06,10,10,10,14,5,20,0.00,2,,66
2012-9-28,75,70,64,70,66,63,100,92,73,30.15,30.09,30.04,10,8,3,10,3,,0.52,3,Thunderstorm,14
2012-9-29,75,66,57,61,56,54,88,71,47,30.11,30.04,29.97,10,9,0,13,8,16,0.00,2,,29
2012-9-30,69,63,57,61,58,55,94,83,64,29.97,29.89,29.80,10,10,10,10,5,,0.00,0,,11